Theta_e
328 330 331 334 336 336 334 332 336 336 335 334 334 333 332 334 335 336 338 337 336 333 337 338 337 337 341 340 337 335 336 336 337
324 328 331 334 336 335 336 334 334 336 334 334 333 332 333 335 335 335 336 337 337 335 334 337 337 337 340 340 339 337 337 337 337
320 324 328 331 333 335 335 335 333 334 335 334 333 332 334 334 335 335 335 336 335 338 334 335 337 336 337 339 338 337 335 336 336
322 325 327 330 330 331 332 333 333 333 334 334 333 333 331 334 335 335 335 336 335 335 334 335 336 335 336 337 335 333 332 331 335
319 323 326 328 328 329 330 332 332 332 333 334 332 333 333 333 335 333 334 336 336 334 334 336 335 335 335 335 335 333 331 328 333
317 319 322 326 327 329 331 330 330 331 331 332 333 332 332 332 333 334 334 335 334 335 334 336 333 332 329 329 333 333 332 329 331
316 317 321 322 324 325 329 330 330 330 331 331 332 333 332 330 331 332 333 334 335 334 334 334 331 327 327 329 333 332 331 330 329
315 317 318 319 320 324 325 329 329 330 330 328 329 332 332 332 331 331 332 332 332 333 333 332 329 329 332 330 333 332 331 330 329
313 313 313 315 316 318 319 322 326 327 329 329 328 327 328 329 331 331 330 331 331 332 332 334 331 329 326 327 329 330 330 329 330
310 311 311 310 310 312 314 316 319 321 324 326 328 328 327 326 327 328 329 329 328 328 331 333 332 328 325 325 326 327 330 330 328
308 309 309 309 308 308 309 311 313 314 316 319 321 324 327 327 327 328 328 327 328 327 328 329 329 329 328 326 326 327 330 326 329
307 307 306 306 306 307 307 308 309 310 310 311 314 315 318 323 326 326 327 327 326 325 324 326 326 326 327 327 325 324 322 327 327
305 305 304 303 303 304 305 305 305 305 306 307 309 311 313 315 317 322 324 325 325 325 324 323 322 325 324 324 322 323 324 324 325
302 302 301 300 299 300 300 301 301 302 304 306 311 311 314 317 319 320 321 322 323 324 323 323 324 323 323 323 324 324 322 323 325
298 298 297 297 297 297 297 298 300 301 302 307 311 312 312 313 313 313 314 315 317 319 321 321 321 321 324 324 325 325 324 323 324
294 294 294 294 294 295 295 296 298 299 301 304 307 308 308 307 306 306 307 308 309 311 313 315 316 317 320 318 316 322 323 325 325
292 292 292 292 293 293 294 295 295 299 300 301 303 303 307 305 305 304 303 303 304 305 306 307 308 309 311 311 313 317 319 322 323
291 291 292 292 292 292 291 292 294 294 298 300 300 301 303 302 305 302 301 301 301 301 301 302 303 304 305 308 312 311 316 318 321
290 291 292 292 291 291 291 291 292 294 294 294 298 299 299 303 303 301 299 299 299 298 297 298 299 300 302 303 306 308 311 313 315
290 291 291 291 291 290 291 291 291 291 292 294 293 294 298 298 299 300 300 298 297 297 297 296 295 296 298 300 302 302 305 309 310
Wind_Speed
7 8 7 6 5 5 6 6 5 5 6 7 7 7 6 6 9 10 11 10 12 12 13 14 14 16 16 17 18 16 15 14 14
7 8 9 8 6 5 5 5 5 6 6 7 8 7 6 6 8 10 12 9 11 12 14 15 15 16 17 17 16 15 15 14 13
9 8 6 8 5 5 5 5 6 6 7 7 8 7 6 6 8 9 11 11 12 12 16 15 16 16 18 19 18 15 14 13 15
8 5 6 7 6 6 4 4 5 5 6 6 8 8 7 7 8 10 8 11 12 13 15 17 16 16 18 17 15 14 13 14 16
6 4 5 6 6 8 8 5 5 4 4 5 7 8 8 8 10 12 10 11 14 14 18 19 20 17 16 16 13 12 12 12 16
6 5 5 9 6 8 6 7 6 6 5 6 7 8 9 9 10 13 13 12 13 13 19 19 15 16 13 12 12 11 12 12 16
10 5 4 5 6 6 7 5 6 6 5 4 7 8 9 9 9 12 13 12 13 14 18 19 17 14 15 16 16 13 13 13 16
13 14 6 4 9 12 7 6 4 4 5 8 6 5 5 6 9 12 12 12 14 15 16 16 17 18 17 18 19 16 15 14 14
13 14 14 12 11 10 12 12 8 5 3 6 9 11 9 8 8 8 9 11 11 10 16 15 16 14 12 10 15 14 15 15 15
12 14 13 12 12 12 11 12 12 10 7 6 5 8 14 14 12 12 7 7 10 9 9 12 15 18 14 10 8 10 12 14 16
13 13 13 14 13 13 13 11 10 11 11 8 8 7 4 8 9 9 9 12 4 6 11 8 5 7 9 10 8 6 7 12 16
12 13 14 14 13 11 12 11 10 9 11 11 8 8 7 5 5 8 8 9 13 17 14 13 12 7 6 7 6 10 9 9 13
12 14 15 14 14 14 14 14 15 14 13 12 12 11 9 8 7 6 5 5 7 9 11 17 22 15 16 15 14 11 11 12 13
12 13 14 14 15 16 16 16 16 18 16 16 14 11 11 10 7 7 6 3 4 6 9 12 16 22 25 23 23 24 20 17 17
11 12 13 13 15 17 16 16 16 19 14 15 26 23 19 17 16 16 14 13 9 6 3 3 3 10 10 9 16 24 24 28 24
11 12 13 14 17 17 17 14 17 21 17 7 8 15 22 24 24 24 22 20 16 13 10 7 5 2 8 7 2 11 17 20 22
10 11 13 14 13 15 17 17 15 13 19 9 3 3 3 13 17 19 21 20 17 18 15 12 11 10 8 10 6 3 10 12 23
8 9 10 11 12 14 15 15 14 13 11 14 6 3 2 5 5 13 16 17 17 16 15 14 13 11 10 10 13 17 15 14 12
7 7 8 9 9 10 11 11 12 9 12 5 6 4 2 2 2 3 11 14 14 15 14 15 14 13 12 11 9 12 14 19 17
6 5 5 6 7 8 8 8 9 8 7 7 6 4 1 2 2 3 3 8 9 11 11 12 13 13 12 10 10 16 16 13 16
Wind_Direction
303 295 293 303 288 282 291 309 296 262 266 257 259 262 257 246 227 217 210 215 204 205 197 193 185 180 170 161 159 157 153 150 142
309 311 321 310 315 287 282 295 299 277 264 261 259 259 252 253 235 220 214 226 208 210 203 197 192 190 180 169 162 157 153 153 150
333 337 331 324 318 303 285 281 295 288 268 260 261 250 251 250 227 216 232 216 210 215 210 201 194 193 192 177 166 164 162 161 160
27 16 351 336 310 287 291 272 280 291 272 263 259 252 238 243 231 215 225 212 221 219 213 200 197 194 194 185 180 173 171 167 168
30 18 360 0 328 308 285 285 265 275 283 272 269 272 253 235 229 229 233 211 214 229 210 195 192 185 196 192 189 182 179 172 172
15 4 358 4 358 354 315 277 276 271 279 280 275 268 271 253 244 242 244 243 230 224 209 199 200 196 185 201 212 193 189 183 182
37 29 45 358 6 349 359 321 276 259 263 298 279 277 272 267 265 262 256 254 250 230 219 211 215 204 193 205 211 202 200 194 194
47 51 54 10 26 32 19 13 357 303 256 257 261 276 293 296 274 268 260 257 261 251 227 216 203 201 203 206 210 211 207 202 198
59 52 50 36 26 31 38 39 37 39 357 279 277 271 290 320 315 315 275 273 263 265 258 219 201 196 195 202 215 216 223 214 209
61 58 49 46 35 34 36 40 36 36 36 41 16 283 267 275 296 292 308 310 263 261 295 257 215 199 192 180 198 232 233 228 221
60 60 54 44 38 32 29 31 34 29 28 31 34 20 301 274 287 290 281 262 285 249 277 294 219 229 218 225 211 214 252 245 238
63 60 55 49 43 41 40 33 25 20 11 11 8 359 5 348 310 301 302 285 265 272 279 286 240 235 225 232 233 244 242 261 244
65 61 59 51 47 45 41 34 27 26 21 9 2 359 6 8 5 357 342 323 281 254 273 277 279 272 249 251 255 252 255 250 252
60 63 58 54 52 48 47 43 32 24 25 33 33 40 43 45 50 48 55 76 251 248 238 248 250 259 263 255 249 240 235 241 247
62 62 60 51 51 47 40 45 36 27 25 57 67 66 69 66 65 67 68 70 75 81 66 234 207 213 234 264 255 253 246 241 242
59 60 57 48 46 43 41 36 31 28 25 75 80 65 65 66 64 63 59 58 56 57 63 64 57 357 230 214 5 258 259 253 247
69 62 59 56 50 47 41 41 38 31 29 26 14 14 82 51 58 53 51 46 42 49 52 55 54 58 54 40 35 58 21 274 258
80 75 66 57 48 44 39 37 38 29 34 40 37 16 16 346 20 49 49 45 45 44 41 44 49 51 52 43 61 49 54 27 345
93 84 73 61 52 47 41 35 36 35 28 10 39 52 1 342 313 61 46 41 44 40 38 40 39 35 43 46 47 30 43 41 29
109 97 70 51 43 37 30 30 34 38 37 30 360 23 9 351 324 293 348 17 27 36 30 29 32 34 35 33 35 31 21 33 34